Weather History for Brownsville, TX

Change the Weather History Date:

Sunday, November 25, 2012

  Actual Average Record
Temperature  
Mean Temperature 21 °C 19 °C  
Max Temperature 27 °C 24 °C 31 °C (1965)
Min Temperature 14 °C 14 °C 1 °C (1881)
Degree Days  
Heating Degree Days 0 3  
Month to date heating degree days 1 36  
Since 1 July heating degree days 3 40  
Cooling Degree Days 5 4  
Month to date cooling degree days 201 160  
Year to date cooling degree days 4634 3925  
Growing Degree Days 20 (Base 50)    
Moisture  
Dew Point 16 °C    
Average Humidity 76    
Maximum Humidity 93    
Minimum Humidity 58    
Precipitation  
Precipitation T mm 1.52 mm 3.25 mm (1987)
Month to date precipitation 0.15 1.60  
Year to date precipitation 21.07 26.07  
Sea Level Pressure  
Sea Level Pressure 1017 hPa    
Wind  
Wind Speed 10 km/h (WSW)    
Max Wind Speed 24 km/h    
Max Gust Speed 29 km/h    
Visibility 16 kilometers    
Events Rain    
T = Trace of Precipitation, MM = Missing Value Source: NWS Daily Summary

Daily Weather History Graph

Daily Weather History Graph

Search for Another Location

Airport:

Trip Planner

Search our weather history database for the weather conditions in past years. The results will help you decide how hot, cold, wet, or windy it might be!

Date:

Astronomy

Nov. 25, 2012 Rise Set
Actual Time 6:55 AM CST 5:38 PM CST
Civil Twilight 6:30 AM CST 6:02 PM CST
Nautical Twilight 6:02 AM CST 6:31 PM CST
Astronomical Twilight 5:34 AM CST 6:58 PM CST
Moon 3:46 PM CST (11/25) 4:21 AM CST (11/25)
Length of Visible Light 11h 32m
Length of Day
10h 42m
Waxing Gibbous, 93% of the Moon is Illuminated
Nov 25
Waxing Gibbous
Nov 28
Full
Dec 6
Last Quarter
Dec 13
New
Dec 19
First Quarter

Hourly Weather History & Observations

Time (CST) Temp. Heat Index Dew Point Humidity Pressure Visibility Wind Dir Wind Speed Gust Speed Precip Events Conditions
12:53 AM 15.0 °C - 12.2 °C 83% 1020.4 hPa 16.1 km NW 9.3 km/h / 2.6 m/s - N/A   Overcast
1:48 AM 15.0 °C - 12.0 °C 82% 1020.2 hPa 16.1 km NW 9.3 km/h / 2.6 m/s - N/A   Overcast
1:53 AM 15.0 °C - 11.7 °C 81% 1020.0 hPa 16.1 km NW 9.3 km/h / 2.6 m/s - N/A   Overcast
2:19 AM 15.0 °C - 12.0 °C 82% 1019.5 hPa 16.1 km NW 9.3 km/h / 2.6 m/s - N/A   Overcast
2:53 AM 15.0 °C - 11.7 °C 81% 1018.9 hPa 16.1 km NNW 7.4 km/h / 2.1 m/s - N/A   Mostly Cloudy
3:53 AM 15.6 °C - 12.2 °C 80% 1018.7 hPa 16.1 km NW 5.6 km/h / 1.5 m/s - N/A   Overcast
4:53 AM 15.6 °C - 12.8 °C 83% 1018.1 hPa 16.1 km NNW 5.6 km/h / 1.5 m/s - 0.0 mm   Overcast
5:12 AM 16.0 °C - 13.0 °C 82% 1018.5 hPa 16.1 km NW 9.3 km/h / 2.6 m/s - N/A   Overcast
5:27 AM 16.0 °C - 13.0 °C 82% 1018.2 hPa 16.1 km NNW 9.3 km/h / 2.6 m/s - N/A   Overcast
5:53 AM 16.1 °C - 12.8 °C 81% 1018.4 hPa 16.1 km NNW 7.4 km/h / 2.1 m/s - N/A   Overcast
6:26 AM 16.0 °C - 13.0 °C 82% 1018.5 hPa 16.1 km North 9.3 km/h / 2.6 m/s - 0.0 mm Rain Light Rain
6:53 AM 15.6 °C - 12.8 °C 83% 1018.5 hPa 16.1 km North 5.6 km/h / 1.5 m/s - 0.0 mm   Mostly Cloudy
7:53 AM 16.7 °C - 13.3 °C 80% 1018.7 hPa 16.1 km North 11.1 km/h / 3.1 m/s - N/A   Overcast
8:53 AM 19.4 °C - 13.9 °C 70% 1018.8 hPa 16.1 km NNE 7.4 km/h / 2.1 m/s - N/A   Partly Cloudy
9:53 AM 22.8 °C - 16.1 °C 66% 1019.0 hPa 16.1 km NNE 5.6 km/h / 1.5 m/s - N/A   Clear
10:53 AM 25.0 °C - 18.3 °C 66% 1018.5 hPa 16.1 km South 9.3 km/h / 2.6 m/s - N/A   Partly Cloudy
11:53 AM 26.7 °C 27.6 °C 17.8 °C 58% 1017.4 hPa 16.1 km SSE 13.0 km/h / 3.6 m/s - N/A   Clear
12:46 PM 25.0 °C - 18.0 °C 65% 1016.5 hPa 16.1 km SSW 13.0 km/h / 3.6 m/s - N/A   Mostly Cloudy
12:53 PM 25.6 °C - 17.8 °C 62% 1016.2 hPa 16.1 km South 11.1 km/h / 3.1 m/s - N/A   Mostly Cloudy
1:01 PM 27.0 °C 27.9 °C 18.0 °C 58% 1016.1 hPa 16.1 km Variable 7.4 km/h / 2.1 m/s - N/A   Scattered Clouds
1:53 PM 26.7 °C 27.6 °C 17.8 °C 58% 1015.0 hPa 16.1 km South 20.4 km/h / 5.7 m/s 27.8 km/h / 7.7 m/s N/A   Mostly Cloudy
2:53 PM 26.7 °C 27.6 °C 17.8 °C 58% 1014.5 hPa 16.1 km SSE 20.4 km/h / 5.7 m/s - N/A   Mostly Cloudy
3:53 PM 25.6 °C - 17.8 °C 62% 1014.1 hPa 16.1 km South 18.5 km/h / 5.1 m/s - N/A   Partly Cloudy
4:53 PM 24.4 °C - 16.7 °C 62% 1014.0 hPa 16.1 km South 16.7 km/h / 4.6 m/s - N/A   Clear
5:53 PM 21.7 °C - 16.7 °C 73% 1014.3 hPa 16.1 km SSE 16.7 km/h / 4.6 m/s - N/A   Clear
6:53 PM 19.4 °C - 16.7 °C 84% 1014.8 hPa 16.1 km SSE 11.1 km/h / 3.1 m/s - N/A   Clear
7:53 PM 18.3 °C - 16.7 °C 90% 1015.5 hPa 16.1 km SSE 7.4 km/h / 2.1 m/s - N/A   Clear
8:53 PM 17.8 °C - 17.2 °C 96% 1015.8 hPa 16.1 km South 5.6 km/h / 1.5 m/s - N/A   Clear
9:53 PM 17.8 °C - 17.2 °C 96% 1015.8 hPa 16.1 km SSE 9.3 km/h / 2.6 m/s - N/A   Clear
10:53 PM 17.8 °C - 17.2 °C 96% 1015.6 hPa 16.1 km SSE 9.3 km/h / 2.6 m/s - N/A   Clear
11:53 PM 17.8 °C - 17.2 °C 96% 1015.1 hPa 16.1 km SSE 9.3 km/h / 2.6 m/s - N/A   Clear